Regional Weather Roundup
Issued by NWS

Home | Current Version | Previous Version | Graphics & Text | Print | Product List | Glossary On
Versions: 1 2 3 4 5 6 7 8 9 10 11 12 13 14 15 16 17 18 19 20 21 22 23 24 25 26 27
000
ASUS45 KBOU 240006
RWRCO

WEATHER ROUNDUP FOR COLORADO
NATIONAL WEATHER SERVICE DENVER/BOULDER CO
600 PM MDT WED APR 23 2014

NOTE: "FAIR" INDICATES FEW OR NO CLOUDS BELOW 12000 FEET WITH NO
SIGNIFICANT WEATHER AND/OR OBSTRUCTIONS TO VISIBILITY.

COZ001>005-013-030-031-240100-
...NORTHWEST COLORADO...

CITY           SKY/WX    TMP DP  RH WIND       PRES   REMARKS
CRAIG          CLOUDY    48  18  30 W20       29.92R
HAYDEN         PTSUNNY   45  19  36 W16G23    29.94R
MEEKER         CLOUDY    51  11  20 N13       29.91S
MOUNT WERNER   CLOUDY   N/A N/A N/A W16G25    29.97R
STEAMBOAT SPGS PTSUNNY   42  20  40 SW8       29.92R
WALDEN         CLOUDY    37  19  48 W16G23    29.90R
$$

COZ006>008-011-240100-
...WEST CENTRAL VALLEYS...

CITY           SKY/WX    TMP DP  RH WIND       PRES   REMARKS
GRAND JUNCTION PTSUNNY   57   4  12 W18G25    29.89R
MONTROSE       CLOUDY    55  15  20 NW17      29.90R
EAGLE          PTSUNNY   52  18  25 SW20      29.88R
RIFLE          CLOUDY    55  18  23 NW21G26   29.87R
DELTA          NOT AVBL
NUCLA          NOT AVBL
$$

COZ017>023-064>068-240100-
...SOUTHWEST COLORADO...

CITY           SKY/WX    TMP DP  RH WIND       PRES   REMARKS
DURANGO        CLOUDY    54   9  16 W23G33    29.89R
CORTEZ         SUNNY     57  12  17 W18G26    29.91R
PAGOSA SPRINGS CLOUDY    51   5  15 W21G31    29.90R
TELLURIDE      CLOUDY    39  21  48 NW7       29.97S
WOLF CREEK PAS CLOUDY    28  12  50 SW35G44   29.97F WCI  12
$$

COZ009-010-012-014-032>034-037-058>063-240100-
...CENTRAL COLORADO...

CITY           SKY/WX    TMP DP  RH WIND       PRES   REMARKS
ASPEN          CLOUDY    44  21  40 N12G22    29.90R
BUENA VISTA    CLOUDY    46  20  35 W24G35    29.83R
COPPER MTN     LGT SNOW  30  19  64 W20G32    29.97R WCI  18
BERTHOUD PASS  HAZE      21  12  68 N8G25     29.95R VSB<1/4 WCI  12
COTTONWOOD PAS CLOUDY    39  21  48 W30G39    29.89R
GUNNISON       CLOUDY    46  19  34 W16G25    29.94R
KREMMLING      CLOUDY    41  23  48 N12G21    29.90R
LEADVILLE      CLOUDY    33  21  61 W9        29.92R WCI  25
MONARCH PASS   HVY SNOW  23  21  93 W37G43    30.06S VSB<1/4 WCI   4
SALIDA         CLOUDY    48  26  42 W25G35    29.90S
SUNLIGHT       CLOUDY    32  21  64 SW5       29.99R WCI  27
WILKERSON PASS CLOUDY    36  12  38 W9G21     29.91S
$$

COZ069>075-240100-
...SAN LUIS VALLEY/SANGRE DE CRISTO MOUNTAINS...

CITY           SKY/WX    TMP DP  RH WIND       PRES   REMARKS
ALAMOSA        CLOUDY    52  17  25 SW29G37   29.81R
LA VETA PASS   PTSUNNY   39  23  52 SW9G30    29.86R
SAGUACHE       CLOUDY    50  23  34 NW24G30   29.85R
$$

COZ035-036-038>040-240100-
...NORTHERN COLORADO FRONT RANGE...

CITY           SKY/WX    TMP DP  RH WIND       PRES   REMARKS
DENVER INTL AP HAIL      51  39  63 NE22G30   29.69R
DMNS CITY PARK   N/A     54  37  51 NE20G31   29.67R
AURORA         TSTM      52  36  54 NE26G44   29.67R
FRONT RANGE AP CLOUDY    54  37  54 NE29G38   29.70R
ERIE MUNI ARPT LGT RAIN  57  35  44 NE16G22   29.66R
BOULDER MUN AP CLOUDY    59  30  33 SE10G17   29.68R
CENTENNIAL     CLOUDY    52  34  50 NE25G40   29.66R
BROOMFIELD     CLOUDY    57  34  41 NE21G29   29.67R
FORT COLLINS   CLOUDY    57  30  35 E20       29.67R
LONGMONT       NOT AVBL
$$

COZ041-046-047-076>085-087-088-240100-
...PIKES PEAK/PALMER DIVIDE AND SOUTHERN FOOTHILLS...

CITY           SKY/WX    TMP DP  RH WIND       PRES   REMARKS
COLO. SPRINGS  CLOUDY    67  11  11 SW18      29.62R
A. F. ACADEMY  MOSUNNY   61  18  18 VRB7G35   29.64R
ELLICOTT       NOT AVBL
FALCON         CLOUDY    59  30  32 NE20G26   29.67R
FORT CARSON    PTSUNNY   68  16  13 SW22G28   29.59S
LIMON          CLOUDY    51  35  54 N44G56    29.64R
MONUMENT HILL  CLOUDY    55  28  35 SE12      29.65S
TRINIDAD       PTSUNNY   72  15  11 SW20G29   29.64R
$$

COZ042>045-048>051-090-091-240100-
...NORTHEAST COLORADO...

CITY           SKY/WX    TMP DP  RH WIND       PRES   REMARKS
GREELEY ARPT   CLOUDY    57  28  33 E14G35    29.70R
AKRON          LGT RAIN  48  39  71 NW20G33   29.72R
BURLINGTON     CLOUDY    72  36  26 NE24G31   29.53R
WRAY           PTSUNNY   68  26  20 N28G36    29.61R
STERLING       NOT AVBL
HOLYOKE        NOT AVBL
FORT MORGAN    NOT AVBL
$$

COZ086-089-092>099-240100-
...SOUTHEAST COLORADO...

CITY           SKY/WX    TMP DP  RH WIND       PRES   REMARKS
PUEBLO         PTSUNNY   75  14  10 SW21      29.54R
LA JUNTA       HAZE      78  18  10 W26G37    29.50R VSB 1
LAMAR          CLOUDY    85  13   7 W22       29.43F
SPRINGFIELD      N/A     78  14   9 SW17G31   29.51F
$$



USA.gov is the U.S. government's official web portal to all federal, state and local government web resources and services.